Погода в Шелехове

Россия / Иркутская область     52°12′36″N   104°05′50″E
темп.,
°C
ветер,
м/с
пор.,
м/с
влажн.,
%
обл.,
%
осадки,
мм/ч
давл.,
гПа
погр.,
м
2 декабря, чт
чт223:00−4зсз31094100 0.4 1026584
02:00−4зсз3109497 1.7 1026871
05:00−5зсз2891100 0.3 1027523
08:00−6зюз249281 0.4 102766
11:00−4ююз237995 0.0 102696
14:00−1ю1267100 0.0 1023298
17:00−6ююз1192100 0.0 102413
20:00−7юз218899 0.0 102517
3 декабря, пт
пт323:00−8ююз218383 0.0 102516
02:00−9ююз218619 0.0 102514
05:00−10ююз118875 0.0 102514
08:00−9ююз118889 0.0 102515
11:00−4ю116596 0.0 102352
14:00+1ююв016485 0.0 102054
17:00−6ю119032 0.0 102111
20:00−9ю21897 0.0 102115
4 декабря, сб
сб423:00−9ю119038 0.0 102016
02:00−10ю11907 0.0 101817
05:00−11ю11905 0.0 101617
08:00−11ю219078 0.0 101418
11:00−5ююз117279 0.0 101255
14:00−3сз1371100 0.0 1014122
17:00−4зсз51264100 0.0 1021387
20:00−5юз22834 0.0 102322
5 декабря, вс
вс523:00−9юз218936 0.0 102412
02:00−9ю21905 0.0 102421
05:00−7зюз1188100 0.0 102624
08:00−9зюз229198 0.0 103022
11:00−4з157952 0.0 1032184
14:00−3сз136757 0.0 1032785
17:00−8вюв119364 0.0 103310
20:00−11ююв229629 0.0 103328
6 декабря, пн
пн623:00−11ююв229753 0.0 103231
02:00−12ююв119753 0.0 103021
05:00−12ю129326 0.0 102820
08:00−12ю21917 0.0 102620
11:00−6ю12715 0.0 102472
14:00−2с116780 0.0 1021118
17:00−9зсз119468 0.0 102310
20:00−11ююз119615 0.0 102510